EDT,Max TemperatureF,Mean TemperatureF,Min TemperatureF,Max Dew PointF,MeanDew PointF,Min DewpointF,Max Humidity, Mean Humidity, Min Humidity, Max Sea Level PressureIn, Mean Sea Level PressureIn, Min Sea Level PressureIn, Max VisibilityMiles, Mean VisibilityMiles, Min VisibilityMiles, Max Wind SpeedMPH, Mean Wind SpeedMPH, Max Gust SpeedMPH,PrecipitationIn, CloudCover, Events, WindDirDegrees
2012-10-1,71,65,64,70,65,64,100,97,94,29.87,29.82,29.76,10,3,0,12,4,22,0.68,8,Fog-Rain-Thunderstorm,54
2012-10-2,82,74,66,72,68,63,100,85,58,29.99,29.82,29.74,10,8,1,15,7,22,0.12,6,Rain,192
2012-10-3,75,70,64,67,64,61,97,83,62,30.22,30.11,30.00,10,10,5,8,1,,0.02,3,Rain,215
2012-10-4,82,72,61,67,63,57,100,82,44,30.27,30.23,30.18,10,8,2,6,1,,0.01,0,,241
2012-10-5,82,68,54,62,58,53,97,74,39,30.21,30.13,30.04,10,8,4,7,1,,0.00,0,,221
2012-10-6,82,71,60,64,61,59,96,74,45,30.05,29.98,29.90,10,9,7,14,4,20,0.00,0,,244
2012-10-7,77,67,57,64,60,50,100,82,64,30.11,30.01,29.96,10,8,2,15,4,18,0.00,6,,29
2012-10-8,57,54,50,51,48,46,93,79,72,30.19,30.14,30.09,10,10,4,10,8,17,0.00,8,,37
2012-10-9,59,52,45,48,46,43,97,85,64,30.21,30.17,30.12,10,10,6,7,4,,0.00,6,,6
2012-10-10,73,57,41,55,48,39,97,78,48,30.17,30.12,30.07,10,9,2,12,3,18,0.00,3,,258
2012-10-11,72,57,44,51,46,43,96,73,41,30.32,30.24,30.17,10,10,9,6,2,,0.00,0,,140
2012-10-12,78,62,48,56,52,47,97,78,46,30.28,30.23,30.19,10,10,7,5,1,,0.00,1,,11
2012-10-13,71,63,52,55,50,47,93,70,47,30.45,30.36,30.28,10,10,10,9,6,,0.00,1,,45
2012-10-14,73,60,48,65,57,48,97,82,64,30.31,30.20,30.05,10,10,9,8,1,,0.00,4,,88
2012-10-15,79,66,54,65,59,44,94,77,32,30.06,29.91,29.80,10,10,10,14,8,21,0.00,4,Rain,235
2012-10-16,72,58,44,51,45,42,93,65,35,30.01,29.94,29.90,10,10,9,8,2,,0.00,0,,12
2012-10-17,75,60,46,52,46,42,97,66,34,30.01,29.94,29.89,10,10,8,10,2,,0.00,0,,180
2012-10-18,77,62,48,61,55,46,97,79,54,29.92,29.85,29.79,10,9,4,12,3,,0.00,3,Rain,207
2012-10-19,73,62,51,61,44,27,97,61,19,29.84,29.81,29.75,10,9,2,15,5,24,0.01,0,,243
2012-10-20,72,60,48,47,42,35,83,56,36,29.96,29.87,29.82,10,10,10,14,7,23,0.00,0,,248
2012-10-21,73,57,42,48,44,41,97,73,35,30.17,30.11,29.99,10,10,10,5,2,,0.00,0,,24
2012-10-22,79,60,43,50,47,42,97,67,31,30.26,30.19,30.14,10,10,10,5,0,,0.00,0,,-1
2012-10-23,79,61,44,52,48,43,97,72,29,30.23,30.17,30.12,10,10,7,6,1,,0.00,0,,235
2012-10-24,81,64,46,59,50,45,97,70,31,30.22,30.16,30.09,10,10,9,6,1,,0.00,0,,197
2012-10-25,82,64,48,61,54,47,97,75,45,30.16,30.10,30.06,10,10,8,6,1,,0.00,2,,54
2012-10-26,82,68,55,61,56,53,100,72,40,30.09,30.00,29.93,10,9,4,12,3,20,0.00,0,,30
2012-10-27,75,66,60,58,57,54,90,74,53,29.91,29.80,29.71,10,10,8,13,8,21,0.00,2,,6
2012-10-28,73,62,50,53,47,34,86,65,41,29.76,29.72,29.65,10,10,10,13,6,23,0.00,3,,332
2012-10-29,63,50,39,37,33,29,86,57,35,29.76,29.69,29.62,10,10,10,12,6,23,0.00,4,,294
2012-10-30,55,50,46,31,28,25,50,43,35,29.74,29.61,29.55,10,10,10,18,10,30,0.00,6,,275
2012-10-31,63,53,43,28,24,19,49,35,19,29.84,29.78,29.73,10,10,10,17,10,26,0.00,0,,255